Location: Zagreb
(45.8000°N, 16.0000°E)
Time: 19:18:14
(UTC+01:00)

Oscar 11 - Pass Details

Date: 02 November 2020
Orbit: 613 x 625 km, 97.6° (Epoch: 01 December)

Event Time Altitude Azimuth Distance (km) Brightness Sun altitude
Rises 05:56:59 0° 18° (NNE) 2,891 10.6 -7.6°
Reaches altitude 10° 05:59:15 10° 24° (NNE) 1,981 9.8 -7.3°
Maximum altitude 06:03:25 48° 99° (E) 805 8.3 -6.6°
Drops below altitude 10° 06:07:34 10° 174° (S) 1,967 9.9 -5.9°
Sets 06:09:48 0° 180° (S) 2,869 10.7 -5.5°
